User: anonymous   Login
Location: Unspecified
(0.0000°N, 0.0000°E)
Time: 15:15:40
(UTC+00:00)
Language:

MERIDIAN 6 - Orbit

View from above orbital plane
View from above orbital plane
View from above satellite
View from above satellite

Ground track
Ground track

The orbit data is extracted from the following two-line orbital elements,

1 38995U 12063A   18261.54176307  .00000107  00000-0  10000-3 0  9999
2 38995  65.4705 287.2846 6733367 274.9218 316.7521  2.00601236 42818
Epoch (UTC): 18 September 2018 13:00:08
Eccentricity: 0.6733367
inclination: 65.4705°
perigee height: 2297 km
apogee height: 38060 km
right ascension of ascending node: 287.2846°
argument of perigee: 274.9218°
revolutions per day: 2.00601236
mean anomaly at epoch: 316.7521°
orbit number at epoch: 4281

The dashed part of the orbit path shows where the satellite is in the earth's shadow,  

DLR